Regional Weather Roundup
Issued by NWS Sioux Falls, SD

Home | Current Version | Previous Version | Text Only | Print | Product List | Glossary On
Versions: 1 2 3 4 5 6 7 8 9 10 11 12 13 14 15 16 17 18 19 20 21 22 23 24 25 26 27 28 29 30 31 32 33 34 35 36 37 38 39 40 41 42 43 44 45 46 47 48 49 50
000
ASUS43 KFSD 161302
RWRFSD

WEATHER ROUNDUP FOR SE SOUTH DAKOTA/SW MINNESOTA/NW IOWA
NATIONAL WEATHER SERVICE SIOUX FALLS SD
800 AM CDT TUE SEP 16 2014

NOTE: "FAIR" INDICATES FEW OR NO CLOUDS BELOW 12,000 FEET WITH NO
SIGNIFICANT WEATHER AND OR OBSTRUCTIONS TO VISIBILITY.


SDZ038>040-050-052>070-161400-
SOUTHEAST SOUTH DAKOTA

CITY           SKY/WX    TMP DP  RH WIND       PRES   REMARKS
CHAMBERLAIN    CLEAR     44  42  89 E6        30.08F
HURON          CLEAR     42  38  85 S7        30.12F
MADISON        FAIR      41  41 100 S6        30.17F
MITCHELL       CLEAR     43  41  93 SE8       30.15F
SIOUX FALLS    CLEAR     45  42  89 S7        30.19S
WINNER         FAIR      52  42  69 S21       30.05F
YANKTON        CLEAR     45  39  81 S6        30.19S
$$

MNZ071-072-080-081-089-090-097-098-161400-
SOUTHWEST MINNESOTA

CITY           SKY/WX    TMP DP  RH WIND       PRES   REMARKS
FAIRMONT       SUNNY     45  37  76 SW6       30.21S
JACKSON        CLEAR     43  39  87 S5        30.21S
LUVERNE        FOG       36  34  93 CALM      30.21S VSB 1/4
MARSHALL       CLEAR     45  39  81 SW8       30.16S
MONTEVIDEO     CLEAR     45  39  81 SW3       30.17F
PIPESTONE      CLEAR     39  37  93 SW3       30.18F
REDWOOD FALLS  CLEAR     43  39  86 SW3       30.18F
TRACY          CLEAR     46  42  85 SW9       30.18S
WINDOM         CLEAR     39  37  93 CALM      30.20F
WORTHINGTON    CLEAR     43  39  87 S6        30.21F
$$

IAZ001>003-012>014-020>022-031-032-NEZ013-014-SDZ071-161400-
NORTHWEST IOWA

CITY           SKY/WX    TMP DP  RH WIND       PRES   REMARKS
CHEROKEE       CLEAR     36  36 100 CALM      30.23S
DENISON        CLEAR     39  39 100 CALM      30.22F
ESTHERVILLE    SUNNY     41  39  93 SW6       30.21S
LE MARS        CLEAR     39  39 100 CALM      30.22S
ORANGE CITY    CLEAR     41  37  87 CALM      30.21S
SHELDON        CLEAR     39  37  93 SE3       30.20S
SIOUX CITY     PTCLDY    40  40 100 SE3       30.23S
SPENCER        CLEAR     38  36  92 CALM      30.22S
STORM LAKE     CLEAR     43  43 100 S3        30.22F
$$

ABBREVIATIONS USED IN REMARKS
   TC - TEMPERATURE IN CELSIUS
  WCI - WIND CHILL INDEX
   HX - HEAT INDEX
  VSB - VISIBILITY




USA.gov is the U.S. government's official web portal to all federal, state and local government web resources and services.